RYR553 LEMH-LATI

Flight info

Callsign RYR553
Flight time 1h 43m
Altitude 36000
Route MORSS M603 RIPAL DCT ELSAG/N0441F380 DCT GITRI/N0441F370 DCT UNIXO/N0442F380 DCT TOPNO DCT PAPIZ DCT DIRES
Aircraft B738/M-SDE2E3FGHIRWXY/LB1

Departure

Time 2026-04-22 18:29
Airport Menorca Airport (LEMH)

Arrival

Time 2026-04-22 20:13
Airport Tirana International Airport Mother Teresa (LATI)
Time Latitude Longitude Altitude Speed Heading
2026-04-22 18:14 39.86375 4.22223 302 ft 0 kts 286°
2026-04-22 18:23 39.86372 4.22218 302 ft 1 kts 228°
2026-04-22 18:23 39.86366 4.22221 306 ft 1 kts 158°
2026-04-22 18:24 39.86365 4.22259 304 ft 3 kts 70°
2026-04-22 18:24 39.86380 4.22276 302 ft 3 kts 40°
2026-04-22 18:24 39.86448 4.22314 304 ft 8 kts
2026-04-22 18:25 39.86514 4.22326 303 ft 11 kts 358°
2026-04-22 18:25 39.86542 4.22239 306 ft 13 kts 278°
2026-04-22 18:25 39.86603 4.22172 304 ft 14 kts
2026-04-22 18:26 39.86800 4.22215 308 ft 14 kts
2026-04-22 18:26 39.86895 4.22234 307 ft 13 kts
2026-04-22 18:26 39.86985 4.22252 308 ft 13 kts
2026-04-22 18:26 39.87073 4.22269 309 ft 13 kts
2026-04-22 18:27 39.87158 4.22287 310 ft 12 kts
2026-04-22 18:27 39.87247 4.22306 311 ft 14 kts
2026-04-22 18:27 39.87352 4.22326 312 ft 16 kts 356°
2026-04-22 18:27 39.87393 4.22206 312 ft 16 kts 266°
2026-04-22 18:28 39.87338 4.22094 313 ft 15 kts 204°
2026-04-22 18:28 39.87211 4.22062 312 ft 37 kts 189°
2026-04-22 18:28 39.86709 4.21959 303 ft 108 kts 189°
2026-04-22 18:28 39.85770 4.21762 310 ft 162 kts 189°
2026-04-22 18:29 39.84593 4.21510 789 ft 172 kts 188°
2026-04-22 18:29 39.83392 4.21272 1342 ft 182 kts 187°
2026-04-22 18:29 39.82093 4.20991 1632 ft 200 kts 188°
2026-04-22 18:29 39.80658 4.20662 1795 ft 216 kts 189°
2026-04-22 18:30 39.79153 4.20337 1901 ft 227 kts 188°
2026-04-22 18:30 39.76004 4.20723 2194 ft 241 kts 140°
2026-04-22 18:30 39.75017 4.22465 2681 ft 244 kts 107°
2026-04-22 18:31 39.74887 4.24682 3084 ft 256 kts 82°
2026-04-22 18:31 39.75311 4.26975 3592 ft 265 kts 66°
2026-04-22 18:31 39.76167 4.29121 4231 ft 270 kts 55°
2026-04-22 18:31 39.77278 4.31122 4907 ft 274 kts 48°
2026-04-22 18:32 39.78129 4.32346 5349 ft 276 kts 42°
2026-04-22 18:32 39.80132 4.34437 6332 ft 277 kts 30°
2026-04-22 18:32 39.81815 4.35589 7043 ft 277 kts 20°
2026-04-22 18:32 39.83643 4.36376 7820 ft 276 kts 11°
2026-04-22 18:33 39.85529 4.36789 8625 ft 275 kts
2026-04-22 18:33 39.87398 4.37393 9402 ft 281 kts 21°
2026-04-22 18:33 39.89047 4.38803 10213 ft 289 kts 39°
2026-04-22 18:33 39.90364 4.40918 10518 ft 316 kts 57°
2026-04-22 18:34 39.91200 4.43691 10755 ft 342 kts 71°
2026-04-22 18:34 39.91812 4.46740 11274 ft 352 kts 72°
2026-04-22 18:34 39.92403 4.49855 11961 ft 357 kts 72°
2026-04-22 18:34 39.93004 4.53012 12685 ft 361 kts 72°
2026-04-22 18:35 39.93615 4.56171 13410 ft 365 kts 72°
2026-04-22 18:35 39.94251 4.59394 14146 ft 370 kts 72°
2026-04-22 18:35 39.94900 4.62664 14795 ft 375 kts 72°
2026-04-22 18:35 39.95558 4.65972 15523 ft 379 kts 72°
2026-04-22 18:36 39.96000 4.68191 16008 ft 381 kts 72°
2026-04-22 18:36 39.96678 4.71543 16716 ft 385 kts 72°
2026-04-22 18:36 39.97368 4.74951 17385 ft 390 kts 72°
2026-04-22 18:36 39.98067 4.78397 18052 ft 395 kts 72°
2026-04-22 18:37 39.98792 4.81884 18696 ft 399 kts 71°
2026-04-22 18:37 39.99532 4.85394 19309 ft 402 kts 71°
2026-04-22 18:37 40.00277 4.88921 19933 ft 405 kts 71°
2026-04-22 18:37 40.01028 4.92478 20540 ft 408 kts 71°
2026-04-22 18:38 40.01782 4.96066 21138 ft 412 kts 71°
2026-04-22 18:38 40.02540 4.99683 21730 ft 415 kts 71°
2026-04-22 18:38 40.03302 5.03329 22296 ft 418 kts 71°
2026-04-22 18:39 40.04830 5.10672 23414 ft 425 kts 71°
2026-04-22 18:39 40.05607 5.14416 23902 ft 429 kts 71°
2026-04-22 18:39 40.06387 5.18187 24364 ft 431 kts 71°
2026-04-22 18:39 40.07170 5.21977 24831 ft 434 kts 71°
2026-04-22 18:40 40.07957 5.25790 25284 ft 436 kts 71°
2026-04-22 18:40 40.08747 5.29629 25725 ft 439 kts 71°
2026-04-22 18:40 40.09542 5.33495 26160 ft 442 kts 71°
2026-04-22 18:40 40.10339 5.37384 26583 ft 445 kts 71°
2026-04-22 18:41 40.11144 5.41311 27004 ft 447 kts 71°
2026-04-22 18:41 40.11948 5.45248 27412 ft 450 kts 71°
2026-04-22 18:41 40.12757 5.49215 27830 ft 452 kts 71°
2026-04-22 18:41 40.13570 5.53204 28217 ft 455 kts 71°
2026-04-22 18:42 40.14385 5.57215 28597 ft 458 kts 71°
2026-04-22 18:42 40.15193 5.61201 28965 ft 460 kts 71°
2026-04-22 18:42 40.16013 5.65251 29337 ft 463 kts 71°
2026-04-22 18:42 40.16837 5.69329 29705 ft 465 kts 71°
2026-04-22 18:43 40.17664 5.73431 30063 ft 467 kts 71°
2026-04-22 18:43 40.18493 5.77549 30355 ft 470 kts 71°
2026-04-22 18:43 40.19325 5.81693 30659 ft 471 kts 71°
2026-04-22 18:43 40.19936 5.84745 30911 ft 471 kts 71°
2026-04-22 18:44 40.20770 5.88915 31228 ft 472 kts 71°
2026-04-22 18:44 40.21591 5.93028 31513 ft 473 kts 71°
2026-04-22 18:44 40.22421 5.97194 31813 ft 474 kts 71°
2026-04-22 18:44 40.23250 6.01363 32220 ft 472 kts 71°
2026-04-22 18:45 40.24072 6.05510 32687 ft 469 kts 71°
2026-04-22 18:45 40.24884 6.09619 33164 ft 466 kts 70°
2026-04-22 18:45 40.25696 6.13733 33600 ft 463 kts 70°
2026-04-22 18:45 40.26502 6.17816 33981 ft 462 kts 70°
2026-04-22 18:46 40.27305 6.21894 34288 ft 461 kts 70°
2026-04-22 18:46 40.28097 6.25920 34571 ft 460 kts 70°
2026-04-22 18:46 40.28893 6.29976 34853 ft 460 kts 70°
2026-04-22 18:46 40.29688 6.34040 35139 ft 459 kts 70°
2026-04-22 18:47 40.30484 6.38110 35426 ft 459 kts 70°
2026-04-22 18:47 40.31275 6.42169 35640 ft 459 kts 70°
2026-04-22 18:47 40.32066 6.46234 35906 ft 459 kts 70°
2026-04-22 18:47 40.32845 6.50248 36053 ft 460 kts 70°
2026-04-22 18:48 40.34424 6.58402 36035 ft 458 kts 70°
2026-04-22 18:48 40.35968 6.66421 36036 ft 455 kts 70°
2026-04-22 18:49 40.37511 6.74464 36043 ft 453 kts 70°
2026-04-22 18:49 40.39048 6.82496 36037 ft 452 kts 70°
2026-04-22 18:50 40.40565 6.90459 36051 ft 453 kts 70°
2026-04-22 18:50 40.42087 6.98482 36048 ft 454 kts 71°
2026-04-22 18:51 40.43608 7.06533 36052 ft 455 kts 71°
2026-04-22 18:51 40.45128 7.14614 36040 ft 456 kts 71°
2026-04-22 18:52 40.46647 7.22723 36045 ft 457 kts 71°
2026-04-22 18:52 40.48163 7.30853 36030 ft 458 kts 71°
2026-04-22 18:53 40.49665 7.38942 36039 ft 459 kts 71°
2026-04-22 18:53 40.51174 7.47106 36036 ft 460 kts 71°
2026-04-22 18:54 40.52678 7.55272 36046 ft 460 kts 71°
2026-04-22 18:54 40.54179 7.63456 36047 ft 460 kts 71°
2026-04-22 18:55 40.55674 7.71646 36039 ft 460 kts 71°
2026-04-22 18:55 40.57151 7.79773 36031 ft 459 kts 71°
2026-04-22 18:56 40.58631 7.87952 36024 ft 459 kts 71°
2026-04-22 18:56 40.60105 7.96125 36025 ft 458 kts 71°
2026-04-22 18:57 40.61532 8.04302 36031 ft 459 kts 73°
2026-04-22 18:57 40.62823 8.12545 36034 ft 460 kts 73°
2026-04-22 18:58 40.64082 8.20760 36025 ft 460 kts 73°
2026-04-22 18:58 40.65359 8.29027 36019 ft 461 kts 73°
2026-04-22 18:59 40.66641 8.37300 36033 ft 461 kts 73°
2026-04-22 18:59 40.67922 8.45587 36032 ft 462 kts 73°
2026-04-22 19:00 40.69203 8.53914 36044 ft 463 kts 73°
2026-04-22 19:00 40.70468 8.62192 36044 ft 464 kts 73°
2026-04-22 19:01 40.71738 8.70539 36055 ft 464 kts 74°
2026-04-22 19:01 40.73006 8.78912 36045 ft 466 kts 74°
2026-04-22 19:02 40.74270 8.87309 36066 ft 467 kts 75°
2026-04-22 19:02 40.75531 8.95726 36071 ft 468 kts 75°
2026-04-22 19:03 40.76779 9.04108 36073 ft 468 kts 75°
2026-04-22 19:03 40.78030 9.12543 36095 ft 468 kts 75°
2026-04-22 19:04 40.79276 9.20995 36089 ft 469 kts 75°
2026-04-22 19:04 40.80515 9.29446 36098 ft 469 kts 75°
2026-04-22 19:05 40.81750 9.37913 36108 ft 470 kts 75°
2026-04-22 19:05 40.82980 9.46386 36115 ft 470 kts 75°
2026-04-22 19:06 40.84206 9.54881 36103 ft 471 kts 75°
2026-04-22 19:07 40.86030 9.67614 36102 ft 472 kts 75°
2026-04-22 19:07 40.87244 9.76145 36103 ft 472 kts 75°
2026-04-22 19:08 40.88450 9.84665 36115 ft 472 kts 76°
2026-04-22 19:08 40.89653 9.93207 36102 ft 473 kts 76°
2026-04-22 19:09 40.90850 10.01764 36105 ft 473 kts 76°
2026-04-22 19:09 40.91841 10.08875 36108 ft 474 kts 75°
2026-04-22 19:10 40.92774 10.19011 36087 ft 481 kts 89°
2026-04-22 19:10 40.92318 10.27810 36096 ft 483 kts 91°
2026-04-22 19:11 40.91782 10.36660 36099 ft 483 kts 91°
2026-04-22 19:11 40.91283 10.45532 36092 ft 484 kts 91°
2026-04-22 19:12 40.90810 10.54415 36092 ft 484 kts 91°
2026-04-22 19:12 40.90339 10.63319 36092 ft 485 kts 91°
2026-04-22 19:13 40.89859 10.72222 36088 ft 486 kts 91°
2026-04-22 19:13 40.89371 10.81139 36088 ft 486 kts 91°
2026-04-22 19:14 40.88874 10.90059 36082 ft 487 kts 91°
2026-04-22 19:14 40.88373 10.98926 36081 ft 487 kts 91°
2026-04-22 19:15 40.87945 11.06419 36080 ft 487 kts 91°
2026-04-22 19:15 40.87343 11.16798 36082 ft 487 kts 91°
2026-04-22 19:16 40.86818 11.25721 36080 ft 487 kts 91°
2026-04-22 19:16 40.86290 11.34594 36088 ft 487 kts 92°
2026-04-22 19:17 40.85752 11.43514 36081 ft 487 kts 92°
2026-04-22 19:17 40.85206 11.52437 36076 ft 487 kts 92°
2026-04-22 19:18 40.84654 11.61354 36073 ft 487 kts 92°
2026-04-22 19:18 40.84095 11.70269 36080 ft 487 kts 92°
2026-04-22 19:19 40.83529 11.79198 36075 ft 488 kts 92°
2026-04-22 19:19 40.82955 11.88126 36074 ft 488 kts 92°
2026-04-22 19:20 40.82374 11.97069 36071 ft 489 kts 92°
2026-04-22 19:20 40.81885 12.04500 36085 ft 489 kts 92°
2026-04-22 19:21 40.81192 12.14916 36075 ft 490 kts 92°
2026-04-22 19:21 40.80588 12.23885 36078 ft 491 kts 92°
2026-04-22 19:22 40.80079 12.31360 36075 ft 492 kts 92°
2026-04-22 19:22 40.79460 12.40354 36077 ft 492 kts 92°
2026-04-22 19:23 40.78832 12.49380 36069 ft 494 kts 92°
2026-04-22 19:23 40.78197 12.58418 36067 ft 494 kts 92°
2026-04-22 19:24 40.77573 12.67455 36066 ft 494 kts 90°
2026-04-22 19:24 40.77871 12.76477 36072 ft 490 kts 81°
2026-04-22 19:25 40.78545 12.85372 36070 ft 491 kts 81°
2026-04-22 19:25 40.79198 12.94354 36069 ft 492 kts 81°
2026-04-22 19:26 40.79795 13.03366 36071 ft 492 kts 82°
2026-04-22 19:26 40.80362 13.12374 36065 ft 493 kts 82°
2026-04-22 19:27 40.80920 13.21397 36073 ft 494 kts 81°
2026-04-22 19:27 40.81475 13.30429 36070 ft 494 kts 81°
2026-04-22 19:28 40.82020 13.39401 36058 ft 494 kts 82°
2026-04-22 19:28 40.82562 13.48435 36063 ft 493 kts 82°
2026-04-22 19:29 40.83099 13.57492 36059 ft 494 kts 82°
2026-04-22 19:29 40.83627 13.66538 36062 ft 494 kts 82°
2026-04-22 19:30 40.84061 13.74067 36060 ft 495 kts 82°
2026-04-22 19:30 40.84666 13.84685 36060 ft 495 kts 82°
2026-04-22 19:31 40.85172 13.93707 36070 ft 496 kts 82°
2026-04-22 19:31 40.85675 14.02819 36068 ft 497 kts 82°
2026-04-22 19:32 40.86173 14.11958 36078 ft 499 kts 82°
2026-04-22 19:32 40.86665 14.21122 36076 ft 500 kts 82°
2026-04-22 19:33 40.87147 14.30250 36083 ft 500 kts 82°
2026-04-22 19:33 40.87624 14.39428 36094 ft 502 kts 82°
2026-04-22 19:34 40.88098 14.48657 36086 ft 503 kts 82°
2026-04-22 19:34 40.88565 14.57910 36086 ft 504 kts 82°
2026-04-22 19:35 40.89017 14.67052 36080 ft 496 kts 82°
2026-04-22 19:35 40.89456 14.76093 36095 ft 491 kts 82°
2026-04-22 19:36 40.89891 14.85110 36097 ft 491 kts 82°
2026-04-22 19:36 40.90320 14.94143 36104 ft 492 kts 82°
2026-04-22 19:37 40.90741 15.03173 36099 ft 492 kts 82°
2026-04-22 19:37 40.91155 15.12236 36105 ft 493 kts 82°
2026-04-22 19:38 40.91561 15.21287 36114 ft 494 kts 82°
2026-04-22 19:38 40.91960 15.30325 36137 ft 494 kts 82°
2026-04-22 19:39 40.92355 15.39415 36143 ft 496 kts 82°
2026-04-22 19:39 40.92740 15.48471 36136 ft 497 kts 82°
2026-04-22 19:40 40.93119 15.57610 36158 ft 498 kts 82°
2026-04-22 19:40 40.93498 15.66795 36131 ft 500 kts 82°
2026-04-22 19:41 40.93869 15.76009 36125 ft 500 kts 82°
2026-04-22 19:41 40.94228 15.85144 36115 ft 501 kts 82°
2026-04-22 19:42 40.94582 15.94334 36115 ft 500 kts 82°
2026-04-22 19:42 40.94931 16.03534 36121 ft 500 kts 82°
2026-04-22 19:43 40.95258 16.17342 36102 ft 502 kts 85°
2026-04-22 19:43 40.95128 16.26586 36097 ft 502 kts 86°
2026-04-22 19:44 40.94970 16.35809 36117 ft 501 kts 86°
2026-04-22 19:44 40.94842 16.44969 36104 ft 501 kts 86°
2026-04-22 19:45 40.94730 16.54183 36104 ft 501 kts 86°
2026-04-22 19:45 40.94614 16.63393 36098 ft 501 kts 86°
2026-04-22 19:46 40.94489 16.72617 36105 ft 501 kts 86°
2026-04-22 19:46 40.94356 16.81847 36072 ft 502 kts 86°
2026-04-22 19:47 40.94214 16.91099 36081 ft 503 kts 86°
2026-04-22 19:47 40.94065 17.00310 36059 ft 504 kts 86°
2026-04-22 19:48 40.93908 17.09608 36056 ft 506 kts 86°
2026-04-22 19:48 40.93826 17.14276 35799 ft 509 kts 85°
2026-04-22 19:48 40.93744 17.18988 35119 ft 513 kts 85°
2026-04-22 19:49 40.93657 17.23706 34548 ft 512 kts 85°
2026-04-22 19:49 40.93568 17.28429 33866 ft 515 kts 85°
2026-04-22 19:49 40.93478 17.33113 33223 ft 514 kts 85°
2026-04-22 19:49 40.93384 17.37822 32766 ft 510 kts 85°
2026-04-22 19:50 40.93288 17.42489 32305 ft 507 kts 86°
2026-04-22 19:50 40.93192 17.47134 31845 ft 503 kts 86°
2026-04-22 19:50 40.93095 17.51745 31399 ft 500 kts 86°
2026-04-22 19:50 40.92998 17.56337 30945 ft 497 kts 86°
2026-04-22 19:51 40.92899 17.60900 30498 ft 494 kts 86°
2026-04-22 19:51 40.92801 17.65462 30042 ft 499 kts 86°
2026-04-22 19:51 40.92701 17.70055 29506 ft 498 kts 86°
2026-04-22 19:51 40.92597 17.74628 29041 ft 495 kts 86°
2026-04-22 19:52 40.92491 17.79157 28546 ft 492 kts 86°
2026-04-22 19:52 40.92385 17.83608 28078 ft 489 kts 86°
2026-04-22 19:52 40.92276 17.88095 27605 ft 486 kts 86°
2026-04-22 19:52 40.92168 17.92546 27145 ft 483 kts 86°
2026-04-22 19:53 40.92058 17.96971 26685 ft 480 kts 86°
2026-04-22 19:53 40.91948 18.01368 26228 ft 477 kts 86°
2026-04-22 19:53 40.91875 18.04263 25916 ft 476 kts 86°
2026-04-22 19:53 40.91725 18.10105 25291 ft 473 kts 87°
2026-04-22 19:54 40.91611 18.14445 24821 ft 472 kts 87°
2026-04-22 19:54 40.91496 18.18790 24355 ft 470 kts 87°
2026-04-22 19:54 40.91380 18.23109 23896 ft 469 kts 87°
2026-04-22 19:54 40.91263 18.27409 23394 ft 467 kts 87°
2026-04-22 19:55 40.91144 18.31689 22895 ft 464 kts 87°
2026-04-22 19:55 40.91025 18.35894 22433 ft 461 kts 87°
2026-04-22 19:55 40.90905 18.40109 21976 ft 457 kts 88°
2026-04-22 19:55 40.90784 18.44283 21569 ft 452 kts 88°
2026-04-22 19:56 40.90663 18.48427 21112 ft 448 kts 88°
2026-04-22 19:56 40.90542 18.52532 20661 ft 444 kts 88°
2026-04-22 19:56 40.90421 18.56589 20220 ft 440 kts 88°
2026-04-22 19:56 40.90299 18.60618 19783 ft 436 kts 88°
2026-04-22 19:57 40.90178 18.64596 19357 ft 431 kts 89°
2026-04-22 19:57 40.90056 18.68539 18930 ft 427 kts 89°
2026-04-22 19:57 40.89937 18.72389 18492 ft 423 kts 89°
2026-04-22 19:57 40.89815 18.76237 18020 ft 412 kts 89°
2026-04-22 19:58 40.89696 18.79955 17579 ft 398 kts 89°
2026-04-22 19:58 40.89580 18.83548 17180 ft 385 kts 89°
2026-04-22 19:58 40.89467 18.87026 16783 ft 373 kts 89°
2026-04-22 19:58 40.89356 18.90409 16427 ft 363 kts 89°
2026-04-22 19:59 40.89482 18.93693 16036 ft 351 kts 72°
2026-04-22 20:00 40.98057 19.08062 13898 ft 324 kts 41°
2026-04-22 20:00 40.99581 19.10257 13505 ft 324 kts 42°
2026-04-22 20:01 41.01108 19.12464 13142 ft 324 kts 43°
2026-04-22 20:01 41.02612 19.14653 12756 ft 318 kts 43°
2026-04-22 20:01 41.04089 19.16806 12385 ft 312 kts 43°
2026-04-22 20:01 41.05516 19.18927 12038 ft 312 kts 48°
2026-04-22 20:02 41.06534 19.21499 11738 ft 319 kts 66°
2026-04-22 20:02 41.07307 19.24288 11391 ft 324 kts 66°
2026-04-22 20:02 41.08075 19.27097 11038 ft 323 kts 66°
2026-04-22 20:02 41.08839 19.29879 10690 ft 318 kts 66°
2026-04-22 20:03 41.09594 19.32604 10351 ft 310 kts 66°
2026-04-22 20:03 41.10324 19.35217 10036 ft 302 kts 66°
2026-04-22 20:03 41.11039 19.37768 9939 ft 287 kts 66°
2026-04-22 20:03 41.11741 19.40264 9430 ft 287 kts 65°
2026-04-22 20:04 41.12436 19.42728 9071 ft 282 kts 66°
2026-04-22 20:04 41.13118 19.45147 8764 ft 277 kts 66°
2026-04-22 20:04 41.13789 19.47527 8468 ft 273 kts 67°
2026-04-22 20:04 41.14443 19.49850 8178 ft 270 kts 67°
2026-04-22 20:05 41.15097 19.52173 7892 ft 267 kts 67°
2026-04-22 20:05 41.15749 19.54493 7616 ft 268 kts 67°
2026-04-22 20:05 41.16405 19.56829 7336 ft 271 kts 67°
2026-04-22 20:05 41.17064 19.59182 7054 ft 272 kts 68°
2026-04-22 20:06 41.17478 19.61628 6531 ft 278 kts 83°
2026-04-22 20:06 41.17614 19.64198 6022 ft 279 kts 83°
2026-04-22 20:06 41.17778 19.66772 5626 ft 276 kts 82°
2026-04-22 20:06 41.17891 19.68402 5620 ft 259 kts 83°
2026-04-22 20:07 41.18057 19.70684 5482 ft 238 kts 82°
2026-04-22 20:07 41.18457 19.72706 5095 ft 223 kts 54°
2026-04-22 20:07 41.19633 19.73854 4764 ft 205 kts 11°
2026-04-22 20:07 41.21021 19.73950 4479 ft 197 kts 358°
2026-04-22 20:08 41.22386 19.73883 4163 ft 195 kts 356°
2026-04-22 20:08 41.23692 19.73766 4016 ft 183 kts 355°
2026-04-22 20:08 41.24958 19.73717 3672 ft 184 kts
2026-04-22 20:08 41.26239 19.73769 3299 ft 180 kts 360°
2026-04-22 20:09 41.27457 19.73768 2946 ft 173 kts 359°
2026-04-22 20:09 41.28626 19.73715 2710 ft 161 kts 355°
2026-04-22 20:09 41.29679 19.73542 2432 ft 146 kts 353°
2026-04-22 20:09 41.30667 19.73380 2045 ft 140 kts 355°
2026-04-22 20:10 41.31586 19.73283 1816 ft 127 kts 356°
2026-04-22 20:10 41.32488 19.73156 1661 ft 134 kts 355°
2026-04-22 20:10 41.33423 19.73036 1499 ft 135 kts 356°
2026-04-22 20:10 41.34341 19.72930 1395 ft 130 kts 356°
2026-04-22 20:11 41.35245 19.72823 1268 ft 128 kts 355°
2026-04-22 20:11 41.36116 19.72731 1063 ft 126 kts 356°
2026-04-22 20:11 41.37033 19.72625 880 ft 135 kts 355°
2026-04-22 20:11 41.37960 19.72516 694 ft 128 kts 354°
2026-04-22 20:12 41.38851 19.72395 430 ft 131 kts 353°
2026-04-22 20:12 41.39752 19.72280 270 ft 127 kts 353°
2026-04-22 20:12 41.40637 19.72164 138 ft 127 kts 353°
2026-04-22 20:12 41.41421 19.72062 120 ft 93 kts 355°
2026-04-22 20:13 41.41844 19.72006 115 ft 10 kts 351°
2026-04-22 20:13 41.41880 19.71933 119 ft 11 kts 266°
2026-04-22 20:13 41.41871 19.71837 119 ft 10 kts 264°
2026-04-22 20:13 41.41864 19.71744 119 ft 10 kts 265°
2026-04-22 20:14 41.41860 19.71653 115 ft 10 kts 265°
2026-04-22 20:14 41.41896 19.71590 117 ft 9 kts 346°
2026-04-22 20:14 41.41913 19.71538 117 ft 6 kts 268°
2026-04-22 20:14 41.41912 19.71522 118 ft 0 kts 266°